sat.trackr.live / text

‹ back to catalog

STARLINK-31435

NORAD 59004 · 2024-036G

PAYLOAD ACTIVE UNKNOWN

§ Identity

Operator
Country
US
Launch date
2024-02-23
Launch site
AFWTR
Launch vehicle
Mass (kg)
RCS (m²)

Purposes: comms

External: N2YO · Heavens-Above · Gunter

§ Orbital elements

Epoch: 2026-05-25T02:05:54.084192Z

Period
94.11 min
Inclination
53.1601°
Eccentricity
0.0001417
Mean motion
15.30186938 rev/d
Perigee alt
474.3 km
Apogee alt
476.2 km
Semi-major
6,853.4 km
B*
7.8893e-5
RAAN
83.0164°
Arg perigee
86.5236°
Mean anomaly
273.5927°
Rev number
12,703

§ Raw data

STARLINK-314351 59004U 24036G   26145.08743153  .00001977  00000+0  78893-4 0  99942 59004  53.1601  83.0164 0001417  86.5236 273.5927 15.30186938127033

JSON: /api/v1/satellites/59004 · /tle

For live sub-satellite position, see the globe view (requires WebGL).

§ Visibility from observer

Set your observer location to see the next 7 days of passes ≥ 10°. The values pass through the URL so the page stays shareable.

No JS? Fill the form by hand. The geolocation button needs JavaScript.